Location: Proctor
(47.8934°N, 114.3048°W)
Time: 21:32:20
(UTC+00:00)

CAS-6 - Pass Details

Date: 05 July 2022
Orbit: 613 x 634 km, 97.9° (Epoch: 11 August)

Event Time Altitude Azimuth Distance (km) Brightness Sun altitude
Exits shadow 05:04:00 14° 127° (SE) 1,724 ? -11.0°
Maximum altitude 05:07:11 34° 68° (ENE) 1,025 ? -11.3°
Drops below altitude 10° 05:11:07 10° 3° (N) 1,999 ? -11.7°
Sets 05:13:26 0° 355° (N) 2,906 ? -11.9°
